User: anonymous   Login
Location: Unspecified
(0.0000°N, 0.0000°E)
Time: 10:55:16
(UTC+01:00)
Language:

Meteor 1-10 Rocket - Orbit

View from above orbital plane
View from above orbital plane
View from above satellite
View from above satellite

Ground track
Ground track

The orbit data is extracted from the following two-line orbital elements,

1 05732U 71120B   17058.48880836  .00000087  00000-0  45254-4 0  9993
2 05732  81.2492 229.0971 0051490 352.6189   7.4215 14.05933297323514
Epoch (UTC): 27 February 2017 11:43:53
Eccentricity: 0.0051490
inclination: 81.2492°
perigee height: 836 km
apogee height: 910 km
right ascension of ascending node: 229.0971°
argument of perigee: 352.6189°
revolutions per day: 14.05933297
mean anomaly at epoch: 7.4215°
orbit number at epoch: 32351

The dashed part of the orbit path shows where the satellite is in the earth's shadow,  

DLR